Home > Weather > Kitchener > Past weeks

Flag for Canada Weather for the Past 2 Weeks in Kitchener, Ontario, Canada

Now
43 °F

Light rain. Low clouds.


Feels Like: 40 °F
Forecast: 41 / 55 °F
Wind: 5 mph from North

Location: Waterloo Well

Current Time: May 2, 2016 at 7:09:30 AM

Latest Report: May 2, 2016 at 6:00 AM


Visibility: 9 mi

Pressure: 29.99 "Hg

Humidity: 93%

Dew Point: 41 °F

Location of KitchenerLocation

Historic Weather in Kitchener — Graph

°F

Kitchener Temperature Yesterday

Maximum temperature yesterday: 48 °F (at 2:00 PM)
Minimum temperature yesterday: 43 °F (at 4:00 AM)
Average temperature yesterday: 45 °F

High & Low Weather Summary for the Past Weeks

 TemperatureHumidityPressure
High77 °F (Apr 18, 2:00 PM)100% (Apr 18, 6:00 AM)30.49 "Hg (Apr 18, 6:00 AM)
Low28 °F (Apr 27, 5:00 AM)20% (Apr 17, 5:03 PM)29.71 "Hg (Apr 26, 4:00 AM)
Average47 °F63%30.09 "Hg
* Reported Apr 17 6:00 AM — May 2 6:00 AM, Kitchener, Weather by CustomWeather, © 2016

Note: Actual official high and low records may vary slightly from our data, if they occured in-between our weather recording intervals... More about our weather records

Advertising

Kitchener Weather History for the Previous 24 Hours

Scroll right to see more
 ConditionsComfort  
Time TempWeatherWind HumidityBarometerVisibility
6:00 AM
Mon, May 2
43 °FLight rain. Low clouds.5 mph93%29.99 "Hg9 mi
5:00 AM43 °FLight rain. Low clouds.6 mph93%29.98 "Hg9 mi
4:00 AM43 °FLow clouds.8 mph93%29.97 "Hg9 mi
3:00 AM43 °FLow clouds.7 mph93%30.01 "Hg9 mi
2:00 AM43 °FLow clouds.9 mph93%30.00 "Hg9 mi
1:00 AM43 °FLow clouds.7 mph93%30.03 "Hg9 mi
12:00 AM43 °FLow clouds.12 mph93%30.03 "Hg9 mi
11:00 PM
Sun, May 1
43 °FLow clouds.13 mph100%30.06 "Hg9 mi
10:56 PM45 °FLow clouds.9 mph93%30.06 "Hg9 mi
10:00 PM45 °FOvercast.8 mph93%30.05 "Hg9 mi
9:00 PM45 °FMostly cloudy.8 mph100%30.05 "Hg9 mi
8:57 PM45 °FMostly cloudy.7 mph100%30.04 "Hg9 mi
8:00 PM46 °FLight rain. Fog.8 mph93%30.03 "Hg6 mi
7:00 PM46 °FOvercast.7 mph93%30.02 "Hg9 mi
6:00 PM48 °FOvercast.9 mph87%30.01 "Hg9 mi
5:00 PM48 °FOvercast.9 mph87%29.99 "Hg9 mi
4:00 PM48 °FOvercast.8 mph87%30.01 "Hg9 mi
3:00 PM48 °FLow clouds.10 mph87%29.99 "Hg9 mi
2:00 PM48 °FLow clouds.8 mph87%29.99 "Hg9 mi
1:00 PM46 °FLow clouds.12 mph93%29.98 "Hg9 mi
12:00 PM46 °FLow clouds.10 mph93%29.99 "Hg9 mi
11:00 AM45 °FLow clouds.14 mph100%29.98 "Hg9 mi
10:00 AM45 °FLow clouds.12 mph100%29.98 "Hg9 mi
9:00 AM45 °FLow clouds.12 mph93%29.98 "Hg9 mi
8:00 AM45 °FLight rain. Low clouds.16 mph100%29.97 "Hg9 mi
7:48 AM45 °FLight rain. Fog.17 mph100%29.97 "Hg6 mi
7:03 AM45 °FLight rain. Fog.13 mph93%29.97 "Hg5 mi
Weather by CustomWeather, © 2016

See weather overviewHow to use our weather pages